• In Uzbekistan
  • List of Countries
  • For 7 days
  • Water Temperature
  • Weather Map
  • Weather Widgets
  • user-avatar
    Login

    Hourly Weather Valletta

    Today, 12 December, Thursday

    Time Temperature Precipitation Wind Pressure Humidity
    00:00 +13°C° 0 mm 13 mps 750 mmHg 69%
    01:00 +13°C° 0 mm 12 mps 750 mmHg 69%
    02:00 +13°C° 0 mm 12 mps 749 mmHg 67%
    03:00 +13°C° 0 mm 12 mps 749 mmHg 66%
    04:00 +13°C° 0 mm 11 mps 749 mmHg 64%
    05:00 +13°C° 0 mm 11 mps 749 mmHg 65%
    06:00 +14°C° 0 mm 11 mps 749 mmHg 66%
    07:00 +14°C° 0 mm 11 mps 749 mmHg 67%
    08:00 +14°C° 0.5 mm 10 mps 749 mmHg 70%
    09:00 +14°C° 0.5 mm 10 mps 749 mmHg 74%
    10:00 +15°C° 0.5 mm 9 mps 749 mmHg 77%
    11:00 +15°C° 0.4 mm 9 mps 749 mmHg 77%
    12:00 +15°C° 0.4 mm 9 mps 749 mmHg 76%
    13:00 +15°C° 0.4 mm 9 mps 749 mmHg 75%
    14:00 +14°C° 0 mm 10 mps 749 mmHg 72%
    15:00 +14°C° 0 mm 11 mps 749 mmHg 69%
    16:00 +14°C° 0 mm 12 mps 749 mmHg 65%
    17:00 +14°C° 0 mm 11 mps 750 mmHg 65%
    18:00 +14°C° 0 mm 10 mps 750 mmHg 64%
    19:00 +15°C° 0 mm 9 mps 750 mmHg 63%
    20:00 +14°C° 0.3 mm 10 mps 750 mmHg 65%
    21:00 +14°C° 0.3 mm 11 mps 750 mmHg 67%
    22:00 +14°C° 0.3 mm 12 mps 750 mmHg 69%
    23:00 +14°C° 0.7 mm 12 mps 750 mmHg 70%

    Tomorrow, 13 December, Friday

    Time Temperature Precipitation Wind Pressure Humidity
    00:00 +14°C° 0.7 mm 11 mps 750 mmHg 71%
    01:00 +14°C° 0.7 mm 11 mps 750 mmHg 71%
    02:00 +14°C° 0.7 mm 11 mps 749 mmHg 71%
    03:00 +14°C° 0.7 mm 11 mps 749 mmHg 71%
    04:00 +14°C° 0.7 mm 11 mps 749 mmHg 72%
    05:00 +14°C° 0.2 mm 11 mps 749 mmHg 69%
    06:00 +14°C° 0.2 mm 11 mps 749 mmHg 66%
    07:00 +14°C° 0.2 mm 11 mps 749 mmHg 63%
    08:00 +16°C° 0.1 mm 11 mps 749 mmHg 63%
    09:00 +16°C° 0.1 mm 11 mps 749 mmHg 63%
    10:00 +16°C° 0.1 mm 11 mps 749 mmHg 62%
    11:00 +16°C° 0 mm 10 mps 748 mmHg 64%
    12:00 +16°C° 0 mm 10 mps 747 mmHg 65%
    13:00 +16°C° 0 mm 10 mps 747 mmHg 67%
    14:00 +16°C° 0.1 mm 11 mps 746 mmHg 67%
    15:00 +15°C° 0.1 mm 12 mps 746 mmHg 68%
    16:00 +15°C° 0.1 mm 13 mps 745 mmHg 69%
    17:00 +15°C° 0.1 mm 14 mps 745 mmHg 69%
    18:00 +15°C° 0.1 mm 15 mps 745 mmHg 69%
    19:00 +15°C° 0.1 mm 16 mps 744 mmHg 69%
    20:00 +16°C° 0.2 mm 16 mps 744 mmHg 70%
    21:00 +16°C° 0.2 mm 17 mps 743 mmHg 70%
    22:00 +16°C° 0.2 mm 18 mps 743 mmHg 71%
    23:00 +16°C° 0.5 mm 18 mps 743 mmHg 70%

    Day after tomorrow, 14 December, Saturday

    Time Temperature Precipitation Wind Pressure Humidity
    00:00 +16°C° 0.5 mm 18 mps 742 mmHg 70%
    01:00 +16°C° 0.5 mm 19 mps 742 mmHg 70%
    02:00 +16°C° 0.2 mm 19 mps 742 mmHg 68%
    03:00 +16°C° 0.2 mm 20 mps 742 mmHg 66%
    04:00 +15°C° 0.2 mm 21 mps 742 mmHg 64%
    05:00 +15°C° 0.1 mm 20 mps 743 mmHg 63%
    06:00 +15°C° 0.1 mm 20 mps 743 mmHg 61%
    07:00 +15°C° 0.1 mm 19 mps 744 mmHg 59%
    08:00 +15°C° 0 mm 19 mps 745 mmHg 58%
    09:00 +15°C° 0 mm 19 mps 745 mmHg 57%
    10:00 +15°C° 0 mm 19 mps 746 mmHg 56%
    11:00 +15°C° 0 mm 19 mps 746 mmHg 57%
    12:00 +15°C° 0 mm 19 mps 747 mmHg 58%
    13:00 +15°C° 0 mm 19 mps 747 mmHg 59%
    14:00 +15°C° 0 mm 18 mps 747 mmHg 62%
    15:00 +16°C° 0 mm 17 mps 748 mmHg 64%
    16:00 +16°C° 0 mm 16 mps 748 mmHg 66%
    17:00 +17°C° 0 mm 15 mps 749 mmHg 68%
    18:00 +17°C° 0 mm 14 mps 750 mmHg 69%
    19:00 +17°C° 0 mm 13 mps 751 mmHg 70%
    20:00 +17°C° 0 mm 13 mps 751 mmHg 71%
    21:00 +17°C° 0 mm 12 mps 752 mmHg 72%
    22:00 +17°C° 0 mm 12 mps 753 mmHg 74%
    23:00 +17°C° 0 mm 12 mps 753 mmHg 75%

    15 December, Sunday

    Time Temperature Precipitation Wind Pressure Humidity
    00:00 +17°C° 0 mm 12 mps 753 mmHg 76%
    01:00 +17°C° 0 mm 12 mps 754 mmHg 77%
    02:00 +17°C° 0 mm 11 mps 754 mmHg 77%
    03:00 +17°C° 0 mm 11 mps 754 mmHg 77%
    04:00 +17°C° 0 mm 11 mps 754 mmHg 78%
    05:00 +17°C° 0 mm 10 mps 755 mmHg 78%
    06:00 +16°C° 0 mm 9 mps 755 mmHg 79%
    07:00 +16°C° 0 mm 8 mps 755 mmHg 79%
    08:00 +16°C° 0 mm 7 mps 756 mmHg 79%
    09:00 +16°C° 0 mm 7 mps 756 mmHg 80%
    10:00 +16°C° 0 mm 6 mps 757 mmHg 80%
    11:00 +16°C° 0 mm 6 mps 757 mmHg 80%
    12:00 +16°C° 0 mm 6 mps 757 mmHg 80%
    13:00 +16°C° 0 mm 5 mps 757 mmHg 80%
    14:00 +16°C° 0 mm 5 mps 757 mmHg 81%
    15:00 +16°C° 0 mm 5 mps 757 mmHg 82%
    16:00 +16°C° 0 mm 5 mps 757 mmHg 82%
    17:00 +17°C° 0 mm 4 mps 758 mmHg 82%
    18:00 +17°C° 0 mm 4 mps 758 mmHg 82%
    19:00 +17°C° 0 mm 4 mps 758 mmHg 82%
    20:00 +17°C° 0 mm 3 mps 758 mmHg 81%
    21:00 +17°C° 0 mm 3 mps 759 mmHg 81%
    22:00 +17°C° 0 mm 3 mps 759 mmHg 80%
    23:00 +17°C° 0 mm 2 mps 759 mmHg 80%

    16 December, Monday

    Time Temperature Precipitation Wind Pressure Humidity
    00:00 +17°C° 0 mm 2 mps 759 mmHg 79%
    01:00 +17°C° 0 mm 2 mps 759 mmHg 79%
    02:00 +17°C° 0 mm 2 mps 759 mmHg 79%
    03:00 +17°C° 0 mm 2 mps 759 mmHg 78%
    04:00 +17°C° 0 mm 2 mps 759 mmHg 78%
    05:00 +17°C° 0 mm 2 mps 759 mmHg 78%
    06:00 +17°C° 0 mm 3 mps 759 mmHg 79%
    07:00 +17°C° 0 mm 3 mps 759 mmHg 79%
    08:00 +17°C° 0 mm 3 mps 760 mmHg 80%
    09:00 +17°C° 0 mm 4 mps 760 mmHg 80%
    10:00 +18°C° 0 mm 4 mps 760 mmHg 81%
    11:00 +18°C° 0 mm 4 mps 760 mmHg 81%
    12:00 +18°C° 0 mm 4 mps 759 mmHg 82%
    13:00 +17°C° 0 mm 5 mps 759 mmHg 82%
    14:00 +18°C° 0 mm 4 mps 759 mmHg 81%
    15:00 +18°C° 0 mm 4 mps 759 mmHg 81%
    16:00 +18°C° 0 mm 4 mps 759 mmHg 80%
    17:00 +18°C° 0 mm 4 mps 759 mmHg 80%
    18:00 +16°C° 0 mm 5 mps 759 mmHg 80%
    19:00 +16°C° 0 mm 5 mps 759 mmHg 81%
    20:00 +16°C° 0 mm 5 mps 759 mmHg 81%
    21:00 +16°C° 0 mm 6 mps 759 mmHg 81%
    22:00 +16°C° 0 mm 6 mps 759 mmHg 81%
    23:00 +16°C° 0 mm 6 mps 759 mmHg 81%

    17 December, Tuesday

    Time Temperature Precipitation Wind Pressure Humidity
    00:00 +16°C° 0 mm 7 mps 758 mmHg 81%
    01:00 +16°C° 0 mm 7 mps 758 mmHg 80%
    02:00 +16°C° 0 mm 7 mps 758 mmHg 80%
    03:00 +16°C° 0 mm 7 mps 758 mmHg 80%
    04:00 +16°C° 0 mm 7 mps 757 mmHg 80%
    05:00 +16°C° 0 mm 7 mps 757 mmHg 80%
    06:00 +16°C° 0 mm 7 mps 758 mmHg 80%
    07:00 +17°C° 0 mm 7 mps 758 mmHg 79%
    08:00 +17°C° 0 mm 7 mps 758 mmHg 79%
    09:00 +17°C° 0 mm 7 mps 758 mmHg 79%
    10:00 +17°C° 0 mm 7 mps 758 mmHg 78%
    11:00 +17°C° 0 mm 7 mps 758 mmHg 79%
    12:00 +17°C° 0 mm 7 mps 757 mmHg 79%
    13:00 +17°C° 0 mm 7 mps 757 mmHg 79%
    14:00 +17°C° 0 mm 7 mps 757 mmHg 78%
    15:00 +17°C° 0 mm 7 mps 757 mmHg 78%
    16:00 +17°C° 0 mm 6 mps 756 mmHg 77%
    17:00 +17°C° 0 mm 7 mps 756 mmHg 78%
    18:00 +17°C° 0 mm 7 mps 757 mmHg 79%
    19:00 +17°C° 0 mm 7 mps 757 mmHg 79%
    20:00 +17°C° 0 mm 7 mps 757 mmHg 80%
    21:00 +17°C° 0 mm 7 mps 757 mmHg 80%
    22:00 +17°C° 0 mm 8 mps 757 mmHg 81%
    23:00 +17°C° 0 mm 8 mps 757 mmHg 81%
    Show more